Home   Weather   Accra   Past weeks

Flag for Ghana Past Weather in Accra, Ghana — Yesterday and Last 2 Weeks

Now
81 °F

Passing clouds.


Feels Like: 88 °F
Forecast: 78 / 90 °F
Wind: 1 mph from North

Location: Lome Airport

Current Time: Dec 6, 2016 at 3:14:49 am

Latest Report: Dec 6, 2016 at 2:00 am


Visibility: 5 mi

Pressure: 29.89 "Hg

Humidity: 94%

Dew Point: 79 °F

Location of AccraLocation

Past Weather in Accra — Graph

°F

Accra Temperature Yesterday

Maximum temperature yesterday: 90 °F (at 11:00 am)
Minimum temperature yesterday: 79 °F (at 4:00 am)
Average temperature yesterday: 84 °F

High & Low Weather Summary for the Past Weeks

 TemperatureHumidityPressure
High93 °F (Nov 30, 12:00 pm)100% (Dec 3, 4:00 am)29.95 "Hg (Dec 3, 4:00 am)
Low75 °F (Nov 29, 3:00 am)52% (Nov 28, 4:00 pm)29.74 "Hg (Nov 26, 3:00 pm)
Average85 °F81%29.85 "Hg
* Reported Nov 21 2:00 am — Dec 6 2:00 am, Accra, Weather by CustomWeather, © 2016

Note: Actual official high and low records may vary slightly from our data, if they occured in-between our weather recording intervals... More about our weather records

Advertising

Accra Weather History for the Previous 24 Hours

Scroll right to see more
 ConditionsComfort  
Time TempWeatherWind HumidityBarometerVisibility
2:00 am
Tue, Dec 6
81 °FPassing clouds.1 mph94%29.89 "Hg5 mi
1:00 am81 °FPassing clouds.1 mph94%29.89 "HgN/A
12:00 am82 °FPassing clouds.7 mph89%29.89 "HgN/A
11:00 pm
Mon, Dec 5
82 °FPassing clouds.8 mph89%29.89 "HgN/A
10:00 pm82 °FPassing clouds.8 mph89%29.92 "HgN/A
9:00 pm84 °FPassing clouds.8 mph84%29.92 "HgN/A
8:00 pm84 °FPassing clouds.8 mph84%29.92 "HgN/A
7:00 pm84 °FPassing clouds.7 mph84%29.89 "HgN/A
6:00 pm84 °FPassing clouds.7 mph84%29.86 "HgN/A
5:00 pm86 °FPassing clouds.7 mph75%29.86 "HgN/A
4:00 pm86 °FPassing clouds.7 mph75%29.83 "HgN/A
3:00 pm88 °FPassing clouds.8 mph70%29.83 "HgN/A
2:00 pm88 °FPassing clouds.8 mph70%29.83 "HgN/A
1:00 pm88 °FPassing clouds.6 mph66%29.86 "HgN/A
12:00 pm88 °FScattered clouds.7 mph70%29.89 "HgN/A
11:00 am90 °FPassing clouds.8 mph67%29.92 "HgN/A
10:00 am88 °FScattered clouds.6 mph66%29.92 "HgN/A
9:00 am86 °FScattered clouds.3 mph75%29.95 "HgN/A
8:00 am82 °FPassing clouds.3 mph84%29.92 "Hg5 mi
7:00 am81 °FPassing clouds.3 mph89%29.92 "Hg5 mi
6:00 am79 °FPassing clouds.No wind94%29.89 "Hg5 mi
5:00 am79 °FPassing clouds.1 mph94%29.86 "HgN/A
4:00 am79 °FPassing clouds.No wind94%29.86 "HgN/A
3:00 am81 °FPassing clouds.1 mph89%29.86 "HgN/A
Weather by CustomWeather, © 2016

See weather overviewHow to use our weather pages